GFSWCAN_sfc_rhum_162.txt.gz
RH
94 94 94 93 95 94 90 87 87 85 83 82 80 79 78 81 87 96 93 86 94 97 87 73 62 80 76 79 85 72 64 66 74 82 89 79 81 73 69 63 68 64 70 64 55 53 54 41 39 42 49 44 40 43
94 94 95 95 93 91 87 87 87 87 84 82 80 79 79 80 85 89 98 76 72 96 82 62 55 54 58 59 72 74 74 67 71 84 85 92 87 90 94 89 87 93 93 94 78 69 65 67 66 61 50 40 44 50
94 95 94 93 90 88 87 86 86 84 84 82 80 79 80 81 81 86 99 94 89 96 86 84 67 54 44 49 48 74 68 55 54 50 63 93 87 94 95 94 90 84 91 91 84 78 72 66 60 62 61 63 55 52
94 94 94 91 88 87 86 84 84 85 83 81 80 79 78 79 83 81 99 92 89 93 99 88 52 50 43 51 48 46 47 50 49 52 50 60 80 80 90 83 93 84 83 85 88 78 76 67 58 63 56 54 56 66
94 94 90 87 86 85 84 85 85 84 82 82 81 77 76 78 84 87 97 88 65 90 98 94 70 62 50 48 43 43 44 48 56 62 69 68 67 67 69 86 85 88 78 79 82 72 71 68 67 64 64 60 63 71
95 91 86 86 86 87 86 86 84 84 84 83 82 81 80 84 88 97 97 82 79 88 100 99 77 66 51 44 46 49 46 43 63 76 64 58 46 56 74 80 62 77 74 69 66 76 80 70 68 61 61 58 57 82
91 86 86 86 87 88 87 86 85 84 83 83 83 84 85 88 97 95 91 96 90 93 98 89 96 62 44 50 54 63 58 64 82 69 71 64 60 62 78 68 62 56 62 66 67 71 72 63 65 66 61 58 58 61
87 86 87 88 88 86 87 85 84 84 83 84 86 87 87 88 92 98 87 84 83 90 94 88 92 74 42 56 66 77 82 70 69 64 74 73 80 91 87 72 59 58 67 71 71 74 76 78 76 73 67 66 64 68
87 87 88 89 87 87 86 86 85 86 86 86 87 87 95 97 97 94 81 80 82 90 96 90 94 90 59 65 75 92 95 91 93 93 77 83 92 90 77 70 68 58 71 68 67 79 76 79 79 74 73 74 84 79
88 88 88 87 86 85 86 86 85 87 87 87 94 95 94 89 85 86 89 98 95 96 99 97 86 81 68 79 89 94 95 96 96 90 84 94 90 72 73 83 87 82 79 78 82 75 79 72 75 77 80 87 88 91
87 88 86 84 83 84 85 86 87 89 85 87 93 89 80 86 94 96 98 98 91 95 92 95 88 91 76 87 94 95 94 94 95 92 87 92 91 89 84 80 80 85 87 80 84 81 72 64 71 70 85 82 79 86
88 86 84 83 84 84 84 86 90 93 95 92 92 90 91 88 90 94 94 90 94 85 88 91 88 85 82 91 95 94 92 91 94 88 90 91 93 87 88 83 86 90 91 84 82 75 72 72 67 75 84 81 80 79
86 83 82 84 85 84 85 88 89 90 92 87 96 88 95 83 88 93 76 82 84 86 86 88 86 77 86 92 95 95 94 90 82 91 93 90 90 82 91 88 87 86 82 77 81 85 84 68 74 77 81 84 80 78
84 83 84 85 86 85 85 87 89 89 94 92 92 100 92 82 82 71 79 81 82 89 81 85 80 89 94 92 92 96 88 90 90 89 92 91 87 93 90 91 93 86 88 80 76 80 90 80 77 78 78 86 80 78
82 83 85 86 83 85 86 87 88 94 96 92 86 93 80 64 54 59 59 64 66 79 78 83 93 96 94 92 92 90 85 83 89 94 94 97 94 93 93 92 94 94 91 89 88 82 86 79 75 73 83 86 87 82
81 84 90 77 84 86 89 92 94 90 91 95 88 82 71 71 65 61 63 84 74 72 73 93 95 94 94 98 94 84 88 96 96 98 96 96 93 92 93 93 93 92 95 95 94 86 91 85 92 84 66 77 74 83
82 88 82 82 83 84 84 92 92 87 84 77 88 73 72 66 70 64 58 59 55 71 82 94 89 91 93 94 91 91 95 97 97 97 96 95 92 94 93 92 92 86 91 87 81 92 91 93 94 89 89 87 76 85
88 84 84 86 88 85 93 94 89 84 91 86 86 74 62 61 57 54 56 61 61 66 75 77 81 85 93 91 94 96 97 97 96 97 96 88 90 92 86 90 78 90 89 88 88 94 93 95 96 97 97 95 90 83
86 91 84 85 90 97 93 87 89 93 79 76 67 66 60 58 56 64 67 66 66 64 75 82 90 95 96 96 96 93 88 96 96 84 68 66 70 80 80 75 76 86 90 94 97 98 98 95 96 98 97 94 96 94
85 84 86 83 84 94 89 90 85 90 90 76 75 72 63 60 63 64 65 60 67 74 67 74 76 73 76 71 68 69 83 89 94 91 78 69 64 62 61 58 82 91 93 86 96 95 93 97 99 98 97 95 96 98
79 82 83 92 94 94 90 85 90 91 86 89 79 76 73 70 63 56 66 58 69 73 80 73 67 57 67 88 92 93 94 93 95 95 94 87 68 62 68 82 90 97 97 96 96 95 95 98 97 98 98 98 96 96
89 80 92 85 86 87 97 89 90 80 84 74 74 62 73 80 77 70 70 84 86 76 71 78 85 88 90 86 90 90 92 92 94 96 94 90 79 67 65 80 85 92 93 94 94 96 97 98 95 94 90 94 92 90
80 88 94 92 96 96 90 82 76 70 76 76 73 69 67 74 72 80 86 95 94 94 93 91 82 82 85 81 86 89 89 93 96 96 91 94 88 94 96 97 96 94 90 89 97 97 96 97 89 87 83 84 85 86
83 91 92 95 97 97 77 77 72 70 66 70 72 74 74 84 79 88 87 96 96 95 91 80 85 87 90 85 93 94 96 98 96 94 98 96 97 94 96 90 91 94 95 97 96 89 85 74 73 79 79 77 84 87
100 89 99 99 89 85 78 70 66 70 70 67 69 67 69 82 90 87 86 98 96 97 96 90 79 74 76 83 92 90 90 95 95 92 89 96 94 93 94 90 74 84 91 89 73 64 56 53 51 52 48 49 50 54
96 81 96 83 76 75 64 68 70 74 72 73 68 77 87 87 81 92 97 99 98 95 85 73 75 77 73 72 74 86 94 97 96 93 88 92 90 88 86 75 66 53 60 61 55 49 46 45 43 42 47 48 56 49
96 87 81 76 68 64 65 70 71 72 71 68 67 76 81 83 90 93 95 98 97 84 77 77 72 69 72 62 82 85 87 93 96 96 87 83 68 78 71 54 53 52 55 46 49 42 42 42 44 43 44 46 49 47
73 74 77 69 67 64 65 65 62 59 62 66 76 79 82 78 81 89 93 91 83 79 76 72 68 68 93 96 97 97 96 96 92 74 73 64 56 55 52 51 52 63 52 47 47 45 45 46 46 48 51 57 64 63
79 71 68 65 61 66 69 70 67 66 66 61 66 67 69 70 75 80 83 79 78 79 83 81 73 86 80 86 88 92 80 72 51 50 60 57 53 50 51 48 48 48 50 49 58 48 48 56 55 56 60 64 70 64
69 60 61 58 62 66 62 62 65 58 51 51 66 82 84 82 81 78 76 75 87 85 85 82 87 86 72 87 79 58 64 49 53 62 60 61 61 59 59 56 51 48 50 50 46 54 68 63 68 62 64 66 71 71
59 60 55 56 58 54 51 51 54 64 65 75 81 86 83 90 95 96 94 92 89 94 86 77 79 84 78 58 70 60 62 62 63 62 62 62 61 62 60 55 52 54 52 55 59 62 63 66 70 71 70 72 71 72
55 59 60 64 64 61 76 84 94 95 95 98 97 97 97 98 98 97 96 96 89 82 79 81 78 58 48 48 49 54 71 68 69 68 65 65 64 60 56 55 47 50 57 60 60 63 65 68 71 73 74 74 73 73
60 61 64 62 62 75 92 94 95 97 97 98 97 98 97 97 84 94 97 89 86 76 80 72 58 56 58 58 60 66 70 71 78 84 82 82 81 72 60 59 52 54 58 62 66 68 69 71 73 75 74 74 74 73

GFSWCAN_sfc_rhum_165.txt.gz
RH
93 94 94 94 95 93 89 86 86 85 84 83 80 80 80 81 83 96 95 92 95 98 94 80 70 82 82 84 91 75 65 69 77 84 90 90 89 85 85 86 92 72 80 72 65 75 66 58 40 47 51 57 50 50
93 94 94 94 93 91 88 87 86 86 85 83 80 80 80 82 82 86 96 85 86 98 85 75 64 56 62 58 77 82 78 79 71 79 82 92 90 94 92 93 90 94 93 96 84 68 67 71 71 70 63 54 57 61
93 94 94 95 92 88 88 86 85 85 85 83 81 80 78 79 80 82 97 99 96 99 95 94 73 63 71 61 56 84 78 65 67 57 56 93 92 95 93 95 92 90 86 97 89 75 78 74 74 69 62 62 58 61
94 94 94 93 90 88 86 85 86 86 84 82 81 81 79 78 81 80 98 97 97 97 98 90 65 64 54 59 58 57 60 62 62 59 61 60 77 86 93 87 91 88 85 86 87 82 75 72 70 71 64 60 67 71
94 95 94 89 87 86 85 86 87 85 84 83 82 82 81 80 86 93 99 98 82 90 99 97 75 67 68 64 58 57 61 74 67 65 77 76 78 71 77 90 92 84 77 91 89 73 66 70 65 74 62 61 66 69
94 95 91 86 87 88 87 87 85 84 84 82 82 81 81 84 89 96 96 87 76 88 99 96 85 80 58 48 47 50 54 63 58 63 60 62 69 63 78 80 63 76 85 76 60 68 78 70 66 68 66 64 61 73
95 92 87 87 89 89 88 86 85 83 83 82 82 83 86 89 98 89 86 95 93 90 95 91 96 72 56 48 55 65 66 80 88 91 73 73 66 65 84 69 52 51 63 62 68 72 73 70 69 72 70 64 62 68
93 88 88 89 90 87 86 85 83 84 82 82 85 87 88 90 92 96 88 88 88 85 89 95 94 83 60 62 70 84 87 95 82 80 83 77 84 92 89 72 63 57 64 67 72 75 76 83 81 73 70 73 71 68
89 88 89 90 90 88 86 84 83 85 86 86 87 88 95 97 97 96 82 82 72 85 93 96 99 92 67 69 84 93 96 92 91 95 87 81 90 90 73 70 72 67 76 76 78 77 79 80 78 77 76 78 80 65
89 89 89 90 89 87 87 84 83 87 87 89 92 95 96 95 85 83 95 97 96 95 99 99 95 94 77 89 92 95 96 97 98 90 85 94 87 76 90 90 90 84 81 85 86 78 79 72 73 73 75 81 91 86
90 89 90 88 86 86 86 85 87 90 81 89 94 94 87 79 97 96 99 99 94 92 94 98 94 94 80 94 95 95 97 97 96 90 90 92 89 92 87 90 85 85 88 94 88 86 87 87 82 79 83 86 92 92
89 90 88 86 85 85 86 87 89 94 95 90 92 94 98 94 96 95 95 93 94 89 92 95 92 95 91 94 95 94 92 94 93 90 92 92 96 84 88 88 92 89 88 88 81 89 93 88 79 79 87 86 92 94
90 89 86 85 86 84 86 86 87 92 94 97 98 93 97 88 92 97 76 86 85 87 86 91 88 84 90 95 94 96 95 93 86 91 93 95 92 92 94 96 94 91 81 80 79 84 90 83 79 82 90 83 82 90
89 86 85 86 86 85 85 88 88 92 96 83 89 94 97 90 94 79 82 82 83 90 90 87 92 92 96 93 92 95 90 94 88 91 94 97 94 94 93 94 95 94 91 88 87 83 84 84 82 85 89 89 86 86
85 84 85 84 80 83 87 88 89 96 97 94 96 96 94 76 66 62 63 73 71 87 73 83 94 96 92 93 90 92 89 85 95 96 98 96 95 95 92 92 92 94 95 95 95 93 91 84 86 81 86 88 85 82
82 82 89 83 84 86 86 93 95 97 96 91 98 96 82 80 75 62 65 77 76 87 93 93 94 93 94 98 94 93 92 94 95 98 97 97 95 93 92 90 89 93 96 96 95 95 90 90 90 88 79 93 92 88
82 87 84 86 86 87 86 92 97 94 87 85 97 93 88 84 82 75 67 68 72 71 74 94 87 90 92 95 91 93 95 98 97 97 94 95 95 94 91 90 88 89 94 97 95 95 94 94 92 89 89 93 91 95
85 91 84 84 89 89 96 95 96 86 88 96 95 87 78 68 66 62 59 62 66 78 78 79 86 89 92 94 94 96 98 96 95 96 93 83 83 88 82 88 80 92 95 97 95 96 96 97 96 97 96 94 95 95
88 92 84 84 90 96 96 91 93 98 93 92 86 82 79 75 66 58 61 70 73 76 72 78 88 94 96 97 96 93 93 86 95 85 75 82 67 72 70 63 80 92 93 96 98 99 99 98 99 99 99 98 97 97
84 84 84 83 84 95 95 91 95 89 95 87 90 85 84 79 65 61 60 73 68 71 72 83 83 82 81 76 81 76 86 83 96 98 85 73 75 71 70 76 94 96 94 93 96 99 98 97 97 97 98 98 95 95
87 87 86 92 96 96 96 96 92 95 95 94 88 91 75 81 77 75 72 65 84 76 90 80 72 64 62 90 95 96 96 96 97 97 96 97 86 86 84 74 90 96 95 97 97 95 97 98 98 98 97 97 94 96
91 81 95 85 94 92 98 97 96 92 92 80 82 80 80 84 81 75 74 87 91 84 84 82 86 84 90 86 89 91 95 94 96 98 99 99 96 90 94 96 85 90 93 94 96 97 96 97 98 96 95 95 96 94
83 84 94 97 98 98 94 94 87 76 81 81 80 74 78 79 78 82 88 95 96 94 95 94 89 88 90 84 89 90 91 95 98 97 98 98 97 96 96 95 96 94 92 92 96 97 97 96 91 90 90 91 90 92
83 92 97 99 99 92 87 85 80 78 72 74 76 78 75 87 86 90 90 98 97 97 96 91 89 87 87 84 92 95 96 97 95 97 96 97 98 96 97 94 93 92 95 97 96 91 73 65 73 64 66 68 84 89
100 94 98 100 91 94 81 81 73 76 67 72 74 70 72 85 87 87 94 99 98 98 97 90 76 75 80 84 89 88 87 97 97 96 94 94 95 93 91 90 78 81 83 68 54 51 52 51 56 58 57 56 56 61
98 80 99 92 88 91 77 72 72 75 75 78 73 80 92 88 83 93 95 97 98 97 90 75 75 79 71 77 82 78 93 96 97 93 92 92 94 91 86 70 60 57 59 60 49 42 44 48 47 48 54 57 66 56
94 88 89 92 77 69 68 69 71 75 78 72 75 80 86 82 91 89 95 99 98 96 84 80 75 79 77 75 87 92 96 97 96 94 87 93 83 82 71 56 63 56 60 51 49 47 48 51 55 63 69 70 70 68
81 81 86 80 83 74 69 68 63 54 67 78 84 81 79 81 84 88 95 92 96 86 77 78 79 77 90 97 99 99 96 94 87 75 76 56 59 60 57 54 56 72 56 54 51 53 55 58 66 70 72 74 75 73
96 88 85 84 68 70 70 72 70 64 68 66 67 65 71 68 75 84 84 90 87 84 81 72 61 83 78 83 84 64 61 58 54 53 59 64 62 58 60 59 52 55 58 69 86 75 68 69 73 75 75 77 78 76
83 79 79 71 65 66 63 64 70 66 58 60 67 85 91 90 85 86 87 83 86 73 69 78 88 92 92 85 84 63 62 58 58 58 65 66 65 64 69 64 64 63 64 69 70 73 80 71 75 70 73 78 81 81
73 76 71 70 68 60 54 53 64 74 75 85 88 94 87 93 94 93 82 88 94 95 95 94 84 92 94 73 66 65 60 64 66 64 66 66 66 66 66 66 72 70 69 70 71 73 74 78 80 78 76 78 78 81
71 68 67 67 65 63 76 86 90 92 94 98 96 96 97 99 96 95 96 97 94 87 82 84 68 59 61 62 65 66 74 70 70 67 63 65 66 67 68 69 72 71 72 74 75 76 76 79 81 80 81 78 77 76
69 68 66 66 64 77 94 94 96 98 98 98 97 97 96 97 88 92 92 88 79 84 86 80 64 63 61 62 66 71 75 74 81 82 83 83 81 76 73 74 72 72 74 78 77 76 77 77 79 77 77 78 76 74

GFSWCAN_sfc_rhum_168.txt.gz
RH
94 93 92 93 94 92 90 87 86 85 84 84 81 80 80 80 82 95 96 95 95 98 95 86 78 84 88 90 90 75 69 76 78 86 92 92 94 91 90 89 95 86 92 85 75 74 71 62 51 58 58 67 58 58
93 93 93 94 94 92 88 88 86 86 85 84 82 80 80 79 81 86 92 88 92 99 82 84 74 66 68 66 78 85 81 82 78 78 78 90 92 92 93 88 91 94 94 97 89 79 75 75 72 72 72 66 65 65
93 93 94 94 95 91 88 85 85 86 85 84 82 80 81 81 80 82 96 99 97 99 96 94 76 69 80 67 59 83 85 75 73 68 69 90 96 96 94 94 90 91 90 97 87 80 88 79 81 72 69 71 68 70
93 93 94 96 92 89 86 85 86 86 85 83 82 81 81 81 82 82 99 97 98 95 99 87 68 72 63 72 67 59 72 72 71 72 77 78 83 87 94 88 92 86 82 83 90 80 71 77 83 78 76 67 67 71
93 94 95 93 89 86 85 86 87 85 84 83 81 80 80 81 86 95 99 99 86 97 99 97 79 70 73 72 65 65 70 82 68 65 67 75 77 83 84 93 96 92 84 93 95 88 81 72 67 67 70 71 62 72
93 94 94 90 88 88 88 88 85 85 83 82 82 81 81 83 90 94 97 88 80 96 100 93 86 80 58 58 58 58 65 85 68 72 65 64 66 60 74 79 62 76 91 91 94 87 78 64 68 69 70 68 68 67
93 96 92 88 89 89 89 87 85 83 83 82 82 83 86 90 98 82 79 95 92 89 96 98 96 72 66 65 62 71 75 74 91 95 91 86 89 85 82 70 50 56 59 67 70 73 74 68 73 70 70 68 70 68
95 94 89 89 89 89 88 85 83 83 81 83 86 87 89 92 88 97 93 93 89 76 86 99 94 87 70 69 71 93 94 96 95 88 88 87 86 93 88 72 68 68 69 70 75 84 83 77 79 77 73 74 76 76
95 91 89 89 91 90 86 84 82 84 86 87 90 87 95 96 96 96 84 87 71 82 94 97 98 92 73 74 88 94 97 96 91 96 93 83 93 93 76 83 85 71 82 81 80 82 77 82 78 74 78 78 81 81
93 89 89 90 91 88 87 84 82 86 88 86 91 95 97 96 82 82 95 98 96 98 99 98 96 96 84 92 94 95 96 97 98 91 85 96 96 94 93 85 92 90 87 86 95 84 75 75 74 74 66 74 80 82
92 90 90 91 89 86 86 85 86 89 75 88 94 95 94 82 98 96 98 99 94 87 93 97 98 96 84 94 96 94 98 98 97 90 96 94 98 96 88 92 95 98 90 89 94 92 87 86 87 88 86 83 84 87
91 89 91 90 86 86 86 86 88 95 95 93 94 90 98 96 97 94 94 92 97 90 96 95 93 98 95 96 98 94 94 93 98 93 96 96 98 91 95 91 93 95 92 89 87 88 88 93 92 93 90 86 86 89
89 91 90 87 86 85 86 86 87 90 91 97 97 93 95 90 96 99 84 88 90 89 89 92 92 94 92 95 95 96 96 95 87 92 96 97 94 94 95 95 94 93 90 84 86 85 82 88 89 85 87 86 85 91
90 90 86 86 86 86 87 87 89 92 95 84 85 93 98 93 95 87 85 88 85 90 89 95 95 93 96 94 90 95 90 95 91 94 94 97 92 93 93 90 92 93 93 91 90 90 94 93 93 86 88 86 86 89
89 85 85 84 81 85 87 89 90 96 96 90 90 98 97 85 82 71 70 77 69 92 91 94 94 97 93 93 91 93 89 90 95 96 96 96 92 93 93 90 87 88 91 94 91 92 92 92 88 89 87 87 87 86
83 80 89 83 84 86 86 92 96 97 97 91 99 98 93 91 82 73 66 74 80 95 95 88 94 91 95 96 94 91 93 97 95 98 96 96 94 91 92 92 90 90 93 96 96 95 95 95 95 92 90 89 88 86
81 84 82 86 85 87 88 95 98 97 96 96 99 98 96 95 91 76 65 64 68 76 74 91 85 88 92 93 92 94 95 97 96 95 95 92 95 92 90 91 89 89 94 96 98 97 97 96 95 91 92 94 95 94
86 87 84 84 90 88 96 96 96 93 82 95 98 93 93 85 80 80 77 75 70 80 89 80 78 84 93 94 94 96 95 91 92 92 91 84 84 86 85 89 79 91 95 96 97 98 97 96 97 99 98 96 94 95
83 91 84 84 89 96 96 95 94 97 95 96 97 96 88 82 82 76 75 64 66 72 75 81 84 94 95 96 96 93 88 84 90 89 89 88 89 82 75 84 88 94 94 95 96 100 99 97 99 99 98 98 98 98
84 84 84 83 83 94 94 95 96 98 96 91 96 95 92 86 80 79 70 63 70 78 83 84 85 75 79 84 83 87 74 88 97 98 93 84 85 83 86 91 93 97 95 88 95 98 94 97 98 97 98 98 96 97
86 83 85 91 95 95 95 96 94 94 97 97 94 94 88 87 84 81 79 80 76 76 88 85 77 68 66 82 90 96 96 97 98 99 97 96 90 97 96 93 92 96 94 96 96 97 97 97 98 98 92 96 95 95
89 81 95 85 94 95 98 97 96 96 96 91 93 89 86 83 79 72 75 81 91 87 88 85 88 84 89 85 89 91 95 96 97 99 99 100 99 96 94 97 89 92 94 94 97 97 96 95 97 93 93 93 97 97
82 88 92 97 98 98 92 97 96 89 92 84 85 80 82 88 85 84 93 95 96 95 96 96 91 88 92 81 83 84 86 94 97 97 97 98 98 97 97 96 96 94 90 89 96 95 91 92 84 82 82 83 85 87
85 94 98 97 99 96 88 89 95 92 77 79 78 80 76 86 86 92 92 98 98 98 98 96 95 84 81 81 87 90 93 97 98 97 96 96 97 96 97 93 88 87 91 96 89 75 62 63 68 60 61 70 85 91
98 96 99 98 86 96 89 88 85 81 69 67 77 75 74 87 90 87 95 98 99 98 98 90 85 72 76 83 88 87 85 96 98 99 95 92 93 92 87 76 62 69 76 56 49 52 55 56 58 58 59 62 67 68
99 85 98 93 90 94 91 87 77 76 73 78 77 84 93 90 83 90 95 99 99 98 95 82 76 73 68 80 85 85 96 96 98 97 90 92 93 89 84 69 65 56 63 57 53 55 59 60 64 67 69 70 81 65
99 88 89 93 92 80 80 73 75 72 73 75 78 83 87 80 88 92 98 98 98 91 89 81 80 81 80 88 93 96 98 99 98 95 87 87 82 81 76 77 70 58 61 52 52 54 61 66 68 68 70 71 72 71
95 88 92 87 92 92 80 77 72 62 63 76 88 83 80 78 89 89 92 91 93 95 90 80 77 77 66 85 92 87 88 92 85 83 69 56 61 64 64 58 63 77 67 66 57 60 68 70 69 68 69 71 72 70
98 95 93 91 87 85 83 80 70 65 63 75 75 70 68 71 74 70 77 85 91 88 84 79 71 81 62 85 83 60 57 70 70 62 62 62 60 56 61 61 66 72 73 74 91 79 73 69 69 69 70 71 72 71
89 94 91 83 81 76 66 66 70 65 62 60 67 80 87 90 84 86 86 82 82 70 66 70 85 85 82 86 90 71 54 58 59 56 59 62 62 65 69 68 70 73 74 70 68 68 80 71 73 67 70 72 71 71
82 85 80 75 69 63 55 53 62 77 84 88 91 95 92 94 93 91 78 78 80 87 88 88 88 91 91 92 72 60 53 57 60 62 64 66 68 72 75 76 75 73 72 70 71 70 69 70 71 71 70 71 73 73
79 76 73 71 71 63 78 89 92 96 93 97 96 96 96 98 98 94 97 98 98 96 94 87 69 65 67 64 64 65 73 65 66 65 68 71 73 73 72 73 71 68 69 69 69 68 69 70 71 70 68 68 68 68
76 67 69 70 66 72 92 96 97 98 98 98 97 96 95 94 94 94 97 92 84 88 88 66 62 63 65 64 66 69 73 70 80 86 86 86 86 82 74 74 71 69 69 70 69 68 68 68 67 69 67 64 63 61

GFSWCAN_sfc_rhum_171.txt.gz
RH
95 93 92 93 93 94 90 87 86 85 85 83 81 80 80 80 81 84 68 74 59 72 52 58 60 61 60 59 56 51 49 53 45 56 60 56 65 63 69 64 68 66 57 48 52 57 54 53 44 54 64 55 45 43
94 94 92 93 93 94 88 87 86 86 85 83 81 80 80 82 81 81 60 67 72 74 56 65 55 50 51 50 52 54 56 60 49 49 53 66 69 78 77 72 78 74 76 83 71 56 58 60 64 53 52 61 54 54
94 93 92 94 95 92 87 85 86 86 85 83 81 80 80 81 82 80 81 85 69 81 68 61 51 51 53 53 42 56 53 54 52 50 46 60 75 76 69 62 67 73 71 81 69 50 51 54 49 51 55 52 48 48
94 92 93 94 94 89 86 86 86 86 84 83 80 79 80 80 82 82 86 74 76 82 91 49 48 52 48 48 52 46 48 51 48 50 54 50 56 60 63 63 68 60 67 60 62 55 58 58 56 54 52 49 48 46
93 92 93 95 92 86 85 87 87 85 84 81 81 80 80 80 86 80 84 77 75 77 86 66 51 44 46 51 52 52 53 56 61 68 60 55 49 53 47 64 53 52 54 65 61 63 88 83 65 58 52 54 50 53
93 92 94 94 88 88 87 88 86 84 82 82 81 80 79 82 89 64 86 75 67 73 93 74 52 57 48 46 53 55 57 60 57 58 54 46 48 52 61 58 49 43 58 60 68 63 67 76 70 63 60 54 52 55
93 93 95 91 89 89 89 88 85 82 82 81 82 84 86 89 89 62 56 79 82 68 89 75 58 45 52 49 42 54 53 59 62 67 58 60 65 67 65 68 54 51 50 52 52 56 65 65 62 49 51 51 57 54
93 94 93 89 88 88 89 86 82 82 80 82 86 88 92 92 87 77 65 84 83 68 71 78 66 56 47 47 47 58 64 62 64 58 62 64 62 79 75 64 71 69 66 58 58 56 63 60 57 60 58 59 60 53
92 94 90 89 89 90 88 83 82 83 85 88 87 85 79 76 76 89 84 87 66 67 84 73 71 62 50 48 55 65 72 81 63 80 67 75 91 97 92 86 82 82 80 72 62 63 63 68 64 63 61 62 62 56
94 93 90 89 91 90 87 84 82 85 89 79 72 70 85 74 77 79 83 94 77 79 88 78 64 65 57 56 65 82 81 83 87 72 69 94 97 93 95 93 93 90 84 80 76 67 63 67 63 64 60 58 62 61
94 92 90 90 90 87 86 85 85 88 71 63 68 70 66 78 79 84 93 94 79 75 71 73 71 70 55 73 80 86 85 86 84 78 89 96 97 95 90 91 89 89 84 78 76 73 71 72 71 71 72 69 69 66
94 90 89 90 88 86 86 86 87 80 78 86 92 85 79 72 80 81 77 75 88 79 81 81 66 70 64 78 93 84 84 86 81 78 85 96 97 94 91 91 92 93 89 89 87 81 71 68 65 70 75 72 64 65
92 89 90 89 86 85 86 88 87 90 85 83 89 78 81 73 94 90 72 80 76 73 72 71 60 64 65 78 75 89 82 77 63 87 96 95 95 89 90 94 91 88 80 78 82 84 73 68 68 70 71 64 64 68
89 90 89 85 85 85 86 85 89 86 77 73 75 99 83 79 73 64 71 73 66 79 63 61 62 74 82 83 84 85 71 81 89 95 95 95 92 88 92 88 88 82 75 75 80 88 91 75 70 70 72 69 67 72
90 88 84 80 80 82 86 87 90 79 79 78 78 91 78 60 59 55 53 58 54 61 58 58 65 71 74 84 88 75 80 96 96 95 95 96 88 89 92 85 80 81 78 84 84 84 81 74 73 72 70 71 68 72
85 78 74 82 86 86 86 87 83 77 80 82 91 87 69 70 56 53 52 55 52 60 64 58 75 75 78 78 87 87 89 96 93 95 93 95 93 88 88 83 82 77 79 82 83 84 83 78 79 82 73 69 72 69
80 66 80 84 84 86 88 80 86 87 77 86 88 72 71 69 65 57 52 51 58 58 56 65 72 76 78 82 91 92 94 95 93 92 88 87 91 90 84 83 80 74 82 80 81 83 84 91 80 79 84 92 90 87
71 70 85 85 80 76 81 78 78 82 78 67 75 60 66 62 57 52 52 56 59 64 72 58 62 70 79 84 92 94 92 79 79 74 68 74 82 83 75 76 74 79 80 82 77 79 80 90 95 96 91 82 82 81
69 76 81 84 77 78 84 83 78 81 67 65 66 66 65 60 58 55 52 53 57 60 66 75 65 72 81 87 89 90 83 73 71 64 66 82 79 78 79 75 75 75 77 92 84 84 83 77 86 89 94 92 97 97
84 84 84 83 76 77 81 79 86 93 79 66 69 67 64 58 54 54 51 50 58 64 73 68 54 44 51 64 69 78 73 66 70 81 74 67 70 76 76 76 76 76 76 73 93 94 76 84 78 79 84 85 92 89
78 80 82 74 77 74 74 72 81 76 72 75 64 68 57 58 56 53 51 52 55 50 50 50 49 47 57 67 81 88 83 81 94 85 78 80 67 82 81 65 75 75 74 73 66 83 81 79 80 75 66 81 90 85
78 80 88 78 80 87 91 75 70 68 76 65 68 62 60 58 54 57 61 65 68 57 57 58 66 72 77 78 78 83 86 85 85 88 89 83 72 74 75 77 62 58 64 70 72 72 69 64 73 68 68 76 90 96
77 78 83 89 93 96 85 78 89 77 84 66 62 61 57 62 60 68 90 83 92 96 94 92 93 85 87 66 67 71 70 78 73 84 76 74 75 84 82 77 76 67 62 55 65 62 59 67 55 57 59 58 59 62
82 84 92 90 94 92 74 76 76 76 67 72 73 59 53 66 66 83 80 97 98 98 98 95 93 83 76 74 79 81 82 84 86 96 87 82 78 79 78 57 51 51 60 74 43 40 44 45 57 45 51 56 66 75
96 90 94 100 77 96 85 78 75 71 70 58 62 58 56 79 79 81 86 94 98 97 96 90 84 71 63 63 64 68 76 88 89 90 80 83 66 66 58 47 54 54 40 45 38 37 42 44 52 50 53 52 58 62
99 81 96 81 76 80 73 78 72 70 61 58 54 61 75 79 74 84 96 98 98 97 96 82 62 65 54 57 64 59 75 86 91 88 72 87 90 87 79 65 62 57 40 39 39 41 46 47 46 48 48 54 72 50
97 79 76 70 73 74 72 67 62 64 63 60 52 63 71 69 73 96 97 97 96 87 82 72 63 60 59 59 53 63 51 71 94 90 69 62 64 63 58 54 49 46 43 38 40 45 48 50 50 49 49 49 50 49
76 75 78 68 74 68 72 62 61 59 56 58 62 58 64 66 78 93 90 71 62 68 68 69 64 59 62 58 62 56 54 79 72 56 44 41 42 42 47 43 52 86 56 52 47 50 49 50 50 50 50 51 52 49
87 70 71 74 70 69 70 67 58 51 50 55 56 55 56 50 49 54 63 61 63 58 56 53 50 60 50 62 87 45 47 52 66 61 61 45 40 41 48 51 53 53 53 58 93 69 58 52 50 50 51 50 50 48
70 65 70 69 69 64 56 53 55 48 48 46 46 52 52 50 48 53 57 59 60 54 50 51 56 56 55 59 84 54 51 57 45 45 45 45 47 49 52 54 55 52 50 49 49 52 76 55 60 48 50 48 47 47
59 67 69 65 60 54 50 44 46 53 55 56 58 68 65 65 62 56 57 57 58 60 62 61 59 63 61 61 63 55 50 50 53 52 48 49 50 54 54 54 50 49 48 47 47 47 46 48 50 52 53 55 56 53
63 65 60 65 67 78 91 94 93 98 96 95 94 93 93 90 91 91 91 80 68 64 77 67 55 54 56 50 43 43 60 44 49 51 53 51 52 52 49 47 45 45 46 46 46 47 50 51 51 52 51 54 52 50
62 59 60 60 77 88 95 97 93 96 94 96 96 95 92 89 82 76 74 70 65 64 50 43 42 42 46 43 45 48 56 53 76 92 89 90 89 68 48 46 46 46 46 44 43 45 50 52 52 51 48 46 43 42